This demonstration page uses our WeatherBlox Daily Observations layout. Learn more.

Left ArrowRight Arrow

41.55636, -103.73856

Hourly Observations for February 29, 2016

Temp ( °F °C ) Dew Point ( °F °C ) Humidity (%) Winds ( mph kmh ) Pressure ( in mb ) Visibility ( mi km ) Precip ( " mm )
12:53 am 00:53 Clear 48 8.9 16 -8.9 28 28 W 13 20 29.85 1011 10 16.0934 N/A
1:53 am 01:53 Clear 47 8.3 21 -6.1 36 36 WNW 13 20 29.83 1010 10 16.0934 N/A
2:53 am 02:53 Clear 47 8.3 21 -6.1 36 36 WNW 16 26 29.8 1009 10 16.0934 N/A
3:53 am 03:53 Clear 42 5.6 21 -6.1 43 43 NNE 7 11 29.82 1010 10 16.0934 N/A
4:53 am 04:53 Clear 43 6.1 21 -6.1 42 42 W 10 17 29.82 1010 10 16.0934 N/A
5:53 am 05:53 Clear 45 7.2 22 -5.6 40 40 NW 6 9 29.84 1011 10 16.0934 N/A
6:53 am 06:53 Sunny 41 5 24 -4.4 51 51 NW 6 9 29.85 1011 10 16.0934 N/A
7:53 am 07:53 Sunny 43 6.1 26 -3.3 51 51 NNW 7 11 29.84 1011 10 16.0934 N/A
8:53 am 08:53 Mostly Cloudy 51 10.6 27 -2.8 39 39 WNW 9 15 29.84 1010 10 16.0934 N/A
9:53 am 09:53 Partly Cloudy 56 13.3 28 -2.2 34 34 WNW 12 19 29.83 1010 10 16.0934 N/A
10:53 am 10:53 Mostly Cloudy 57 13.9 26 -3.3 30 30 WNW 16 26 29.78 1009 10 16.0934 N/A
11:53 am 11:53 Mostly Sunny 59 15 25 -3.9 27 27 NW 18 30 29.78 1008 10 16.0934 N/A
12:53 pm 12:53 Mostly Cloudy with Light Rain 54 12.2 30 -1.1 40 40 WNW 16 26 29.77 1008 9 14.48406 N/A
1:13 pm 13:13 Cloudy with Light Rain 49 9.4 31 -0.6 50 50 NNW 25 41 29.8 1009 10 16.0934 N/A
1:53 pm 13:53 Mostly Cloudy 48 8.9 34 1.1 58 58 NNW 30 48 29.84 1011 10 16.0934 N/A
2:53 pm 14:53 Mostly Cloudy 45 7.2 29 -1.7 54 54 N 26 43 29.88 1012 10 16.0934 N/A
3:53 pm 15:53 Windy with Snow Likely 36 2.2 31 -0.6 82 82 N 26 43 30.01 1016 2 3.21868 N/A
4:00 pm 16:00 Windy with Snow Likely 34 1 30 -1 87 87 N 21 33 30.06 1018 0.75 1.207005 N/A
4:07 pm 16:07 Cloudy with Light Snow 34 1.1 32 undefined 92 92 N 18 30 30.06 1018 1 1.60934 0.03 0.762
4:19 pm 16:19 Cloudy with Light Snow 34 1.1 32 undefined 92 92 N 10 17 30.06 1018 2 3.21868 0.04 1.016
4:27 pm 16:27 Cloudy with Light Snow 34 1.1 32 undefined 92 92 N 10 17 30.06 1018 8 12.87472 0.04 1.016
4:39 pm 16:39 Cloudy 35 1.7 32 undefined 89 89 ESE 5 7 30 1016 10 16.0934 0.04 1.016
4:53 pm 16:53 Cloudy 35 1.7 33 0.6 93 93 S 5 7 29.98 1015 10 16.0934 0.04 1.016
5:37 pm 17:37 Cloudy 35 1.7 33 0.6 93 93 SW 3 6 30.09 1019 10 16.0934 N/A
5:53 pm 17:53 Cloudy 35 1.7 33 0.6 93 93 WSW 5 7 30.01 1016 10 16.0934 N/A
6:53 pm 18:53 Cloudy 34 1.1 32 undefined 92 92 W 6 9 30.03 1017 10 16.0934 N/A
7:53 pm 19:53 Clear 34 1.1 31 -0.6 89 89 W 8 13 30.02 1017 10 16.0934 N/A
8:53 pm 20:53 Clear 31 -0.6 29 -1.7 92 92 NW 5 7 30.04 1017 10 16.0934 N/A
9:53 pm 21:53 Clear 30 -1.1 27 -2.8 88 88 NW 7 11 30.07 1018 10 16.0934 N/A
10:53 pm 22:53 Clear 28 -2.2 25 -3.9 88 88 NNW 7 11 30.09 1019 10 16.0934 N/A
11:53 pm 23:53 Clear 29 -1.7 26 -3.3 89 89 WNW 8 13 30.1 1019 10 16.0934 N/A

Powered by AerisWeather